Location: Occidental Observatory
(38.4214°N, 122.9202°W)
Time: 18:26:06
(UTC-07:00)

Daily predictions for brighter satellites

Satellite Brightness Start Highest point End
(mag) Time Altitude Azimuth Time Altitude Azimuth Time Altitude Azimuth
Envisat 3.3 20:48:56 10° SSE 20:53:50 51° ENE 20:58:45 10° N
Resurs 1-3 3.8 20:49:48 10° S 20:54:10 77° WSW 20:58:35 10° NNW
Cosmos 2056 Rocket 4.5 20:50:23 10° N 20:54:57 31° ENE 20:59:28 10° SE
Cosmos 1455 Rocket 4.2 20:51:57 10° NNW 20:56:06 46° W 21:00:14 10° SSW
SAR-Lupe-4 4.4 20:56:11 10° SE 20:59:28 35° ENE 21:02:47 10° N
USA 81 4.4 20:55:17 10° S 21:00:33 75° W 21:05:52 10° N
ISS -0.9 21:02:08 10° WNW 21:04:41 20° NNW 21:07:16 10° NNE
Cosmos 2074 Rocket 4.0 21:00:43 10° N 21:07:00 84° E 21:13:18 10° S
YAOGAN 6 3.6 21:05:43 10° SE 21:08:45 28° ENE 21:11:48 10° NNE
Helios 1A 3.0 21:06:02 10° SSE 21:10:12 68° ENE 21:14:24 10° N
DEBRIS 4.0 21:09:20 10° WSW 21:12:26 64° NNW 21:21:56 10° NE
OAO 2 Rocket 3.7 21:08:34 10° W 21:13:18 48° SSW 21:17:49 11° ESE
Cosmos 2184 Rocket 4.1 21:07:34 10° N 21:13:55 89° W 21:20:11 10° S
SAR-Lupe-1 4.4 21:12:09 10° SSE 21:15:37 48° ENE 21:19:06 10° N
Resurs 01 Rocket 3.1 21:11:31 10° SSW 21:15:38 37° W 21:19:46 10° NNW
Cosmos 1238 Rocket 4.1 21:09:07 10° S 21:15:51 76° E 21:22:10 10° N
Cosmos 405 3.0 21:12:48 10° N 21:16:21 68° E 21:19:52 10° SSE
COSMOS 2487 3.4 21:13:18 10° SSE 21:16:23 28° E 21:19:31 10° NE
Cosmos 1743 4.1 21:17:28 10° NNW 21:21:07 39° W 21:24:46 10° SSW
Helios 1B rocket 2.5 21:17:40 10° NNE 21:21:50 89° W 21:25:58 10° SSW
OE (NEXTSAT) 4.4 21:18:40 10° WNW 21:22:15 89° NNE 21:25:10 15° ESE
Cosmos 921 Rocket 3.9 21:18:48 10° N 21:22:53 34° ENE 21:26:09 14° SE
Meteor 1-23 Rocket 4.2 21:17:23 10° S 21:22:57 81° E 21:28:36 10° N
Cosmos 2082 Rocket 2.8 21:19:50 10° S 21:24:58 36° ESE 21:30:05 10° NE
PSLV R/B 3.9 21:22:31 10° W 21:25:25 37° SSW 21:27:31 16° SE
ERS-1 Rocket 3.5 21:21:26 12° SE 21:25:49 42° ENE 21:30:33 10° N
Cosmos 2278 4.2 21:24:09 10° N 21:29:40 47° ENE 21:34:07 15° SE
Spot 1 4.2 21:25:59 10° S 21:30:25 77° WSW 21:34:40 10° NNW
CENTAUR R/B 4.3 21:23:10 10° NW 21:30:30 39° WSW 21:38:06 10° S
Nadezhda 1 Rocket 4.3 21:28:17 10° SSW 21:34:38 75° W 21:41:04 10° N
Cosmos 1371 Rocket 4.1 21:29:48 10° NNW 21:35:07 84° WSW 21:40:09 11° SSE
Cosmos 1666 4.0 21:32:02 10° NNW 21:35:32 38° W 21:39:02 10° SSW
Cosmos 1656 4.4 21:31:21 10° N 21:36:24 37° ENE 21:40:11 17° ESE
Meteor 1-29 3.3 21:33:58 10° N 21:37:19 65° WNW 21:40:38 10° SSW
ASTEX 1 3.3 21:33:09 10° S 21:38:03 80° E 21:42:57 10° N
Okean 2 3.3 21:35:18 10° S 21:39:22 89° W 21:43:29 10° N
Cosmos 1697 Rocket 3.8 21:37:18 10° N 21:42:14 30° ENE 21:45:47 16° ESE
Tiangong 2 2.5 21:40:38 10° WNW 21:43:37 35° N 21:46:36 10° ENE
MetOp-A 4.4 21:43:03 17° SE 21:46:58 52° ENE 21:52:10 10° N
Cosmos 1892 Rocket 3.5 21:42:57 10° S 21:47:20 66° E 21:51:43 10° NNE
CZ-3B Rocket 4.4 21:46:57 10° SSW 21:50:26 16° SSE 21:50:49 16° SSE
Cosmos 2369 3.8 21:45:03 10° NNW 21:50:46 71° ENE 21:54:44 20° SSE
Meteor 1-15 Rocket 4.4 21:47:35 10° NNW 21:53:09 75° W 21:58:29 11° S
Intercosmos 24 4.0 21:51:14 10° NNW 21:54:47 61° W 21:57:50 14° S
Cosmos 1833 Rocket 2.7 21:49:52 10° S 21:55:22 62° ESE 22:00:56 10° NNE
Cosmos 1025 Rocket 4.3 21:53:38 10° SSW 21:57:39 40° W 22:01:42 10° N
Cosmos 2154 Rocket 4.2 21:52:13 10° N 21:58:33 75° W 22:04:52 10° S
Cosmos 1606 Rocket 3.6 21:54:37 10° N 21:58:57 78° W 22:02:11 17° S
Cosmos 1515 4.1 22:03:17 10° SSW 22:07:02 61° W 22:10:49 10° N
Cosmos 1726 Rocket 3.6 22:03:05 10° N 22:07:24 76° W 22:10:12 21° S
Cosmos 1437 Rocket 3.8 22:05:40 10° NNW 22:09:20 42° W 22:12:19 15° SSW
MOS 1-B Rocket 4.0 22:06:52 21° SSE 22:11:01 86° ENE 22:17:40 10° NNW
Terra 3.2 22:17:37 21° E 22:18:58 24° ENE 22:22:44 10° NNE
Hubble Space Telescope 2.7 22:17:21 10° SW 22:18:49 16° SSW 22:18:49 16° SSW
Cosmos 1066 Rocket 4.1 22:16:43 19° S 22:20:45 78° E 22:26:25 10° NNE
USA 245 2.9 22:23:14 44° N 22:23:14 44° N 22:24:55 10° N
ARGOS 3.1 22:25:02 29° SSE 22:27:55 88° WSW 22:33:23 10° NNW
SL-08 RB Rocket 3.6 22:26:23 39° SSE 22:28:00 77° ENE 22:32:29 10° N
H-2A R/B 2.1 22:28:03 37° SE 22:29:51 60° ENE 22:34:51 10° N
Cosmos 2058 Rocket 3.5 22:26:00 10° NNW 22:30:21 58° W 22:32:37 27° SSW
SL-24 DEB 4.3 22:28:32 29° S 22:30:52 73° W 22:35:31 10° N
Cosmos 1980 Rocket 2.7 22:26:40 10° N 22:32:06 45° ENE 22:34:08 32° ESE
SPOT 5 2.7 22:35:07 38° S 22:36:40 70° WSW 22:41:04 10° NNW
Nimbus 7 Rocket 4.4 22:30:41 10° NNE 22:36:47 85° ESE 22:41:02 21° SSW
SL-08 R/B 4.4 22:33:20 10° N 22:39:28 75° E 22:42:07 36° SSE
Timation 2 Rocket 3.9 22:33:04 10° SSW 22:39:28 88° ESE 22:45:40 10° NNE
Meteor 1-4 Rocket 2.4 22:37:49 10° NNW 22:41:23 74° W 22:41:40 68° SW
Cosmos 2218 Rocket 3.9 22:36:33 10° N 22:42:44 89° W 22:45:42 33° S
Cosmos 1953 4.2 22:40:17 10° NNE 22:42:56 19° ENE 22:42:56 19° ENE
H-2A R/B 2.9 22:42:43 35° E 22:43:22 37° ENE 22:47:31 10° N
Cosmos 2322 Rocket 3.8 22:40:05 10° N 22:44:26 22° NE 22:46:33 18° E
Cosmos 1766 3.4 22:41:09 10° N 22:44:59 54° E 22:44:59 54° E
Cosmos 1812 Rocket 3.6 22:43:12 10° N 22:47:38 60° E 22:48:09 56° ESE
Cosmos 1269 Rocket 3.9 22:46:47 32° SSW 22:49:21 87° ESE 22:54:41 10° NNE
Lacrosse 5 2.9 22:51:06 29° E 22:51:06 29° E 22:54:04 10° ENE
Cosmos 1420 Rocket 3.9 22:46:38 10° NNW 22:51:54 84° WSW 22:53:21 49° S
Cosmos 1626 Rocket 3.8 22:52:09 39° SSW 22:53:34 63° W 22:57:52 10° N
Cosmos 1048 Rocket 3.9 22:51:07 30° SSW 22:53:41 82° WNW 22:58:53 10° NNE
Cosmos 389 Rocket 4.4 22:55:03 10° NNE 22:56:50 20° NE 22:56:50 20° NE
Meteor 1-21 4.1 22:58:21 43° S 23:00:19 83° E 23:06:06 10° N
Lacrosse 5 rocket 3.6 23:00:23 10° NNW 23:04:01 22° NNE 23:05:59 17° ENE
DMSP B5D2-2 4.0 22:59:27 10° NNE 23:04:46 87° WNW 23:06:27 45° SSW
Meteor 2-21 Rocket 4.4 22:59:46 10° N 23:05:50 80° W 23:07:53 44° S
Nadezhda 3 Rocket 4.0 23:04:16 47° SSE 23:06:01 64° E 23:12:18 10° NNE
Cosmos 1825 Rocket 3.9 23:08:08 49° ENE 23:08:08 49° ENE 23:11:48 10° NNE
Cosmos 2082 Rocket 4.0 23:04:06 10° WSW 23:09:02 30° WNW 23:14:00 10° N
Cosmos 1805 3.8 23:08:04 10° N 23:11:17 52° NE 23:11:17 52° NE
Tiangong 2 3.3 23:17:26 10° WNW 23:18:54 25° WNW 23:18:54 25° WNW
Cosmos 1821 Rocket 4.3 23:14:35 10° N 23:20:44 51° E 23:21:50 46° ESE
NOSS 3-1 (C) 4.5 23:14:38 10° NNW 23:22:05 54° NE 23:25:35 34° ESE
Iridium 2 4.3 23:20:09 10° N 23:23:15 56° NNW 23:23:15 56° NNW
Cosmos 1697 Rocket 3.7 23:21:08 10° NW 23:26:11 36° WSW 23:27:31 31° SW
Cosmos 1758 3.9 23:23:23 10° N 23:26:32 53° NNE 23:26:32 53° NNE
Cosmos 2251 Rocket 3.6 23:35:01 64° E 23:35:01 64° E 23:40:07 10° NNE
CZ-4 R/B 3.9 23:30:06 10° N 23:35:09 82° WNW 23:35:30 75° SW
Cosmos 1544 4.4 23:32:42 10° NNW 23:35:17 38° NW 23:35:17 38° NW
SL-16 R/B 2.4 23:33:10 10° NNW 23:38:44 56° ENE 23:39:17 54° E
Cosmos 1271 Rocket 4.0 23:35:50 10° NNW 23:38:59 36° WNW 23:38:59 36° WNW
Cosmos 2360 4.4 23:34:05 10° NNW 23:39:41 59° WSW 23:40:17 56° SW
deb Chang Zheng 4 4.5 23:44:52 10° N 23:48:55 41° WNW 23:49:09 41° W
Cosmos 1535 Rocket 4.3 23:42:56 10° N 23:49:05 82° E 23:49:44 72° SSE
USA 229 DEB 4.1 23:42:55 10° NW 23:49:53 55° WSW 23:51:14 48° SSW
USA 229 4.0 23:43:01 10° NW 23:49:59 55° WSW 23:51:20 49° SSW
Cosmos 2098 Rocket 4.3 23:48:49 10° N 23:53:37 44° ENE 23:53:37 44° ENE
CZ-4B R/B 3.7 23:48:47 10° N 23:53:53 66° WNW 23:54:21 62° WSW
